Flag for Switzerland Weather past 2 weeks in Langenthal, Bern, Switzerland

Now
47 °F

Cool.


Feels Like: 41 °F
Forecast: 33 / 47 °F
Wind: 14 mph from Southwest

Location: Wynau

Current Time: Mar 2, 2015 at 4:18:41 PM

Latest Report: Mar 2, 2015 at 3:00 PM


Visibility: N/A

Pressure: 29.93 "Hg

Humidity: 64%

Dew point: 35 °F

Location of LangenthalLocation

Historic Weather in Langenthal — Graph

°F

Langenthal temperature yesterday

Maximum temperature yesterday: 46 °F (at 10:00 PM)
Minimum temperature yesterday: 28 °F (at 1:00 AM)
Average temperature yesterday: 39 °F

Past Weeks' High & Low Weather Summary

 TemperatureHumidityPressure
High50 °F (Feb 20, 4:00 PM)100% (Feb 20, 5:00 AM)30.73 "Hg (Feb 20, 5:00 AM)
Low23 °F (Feb 20, 7:00 AM)38% (Feb 26, 4:00 PM)29.62 "Hg (Feb 21, 10:00 AM)
Average35 °F87%30.09 "Hg
* Reported Feb 15 3:00 PM — Mar 2 3:00 PM, Langenthal, Weather by CustomWeather, © 2015

Note: Actual official high and low records may vary slightly from our data, if they occured in-between our weather recording intervals... More about our weather records

Advertising

Langenthal weather history for previous 24 hours

 ConditionsComfort  
Time TempWeatherWind HumidityBarometerVisibility
3:00 PM
Mon, Mar 2
47 °FCool.14 mph64%29.93 "HgN/A
2:00 PM47 °FCool.15 mph69%29.92 "HgN/A
1:00 PM45 °FCool.7 mph78%29.92 "HgN/A
12:00 PM43 °FQuite cool.10 mph80%29.93 "HgN/A
11:00 AM49 °FCool.9 mph70%29.84 "HgN/A
10:00 AM47 °FCool.5 mph79%29.85 "HgN/A
9:00 AM48 °FCool.10 mph77%29.83 "HgN/A
8:00 AM47 °FCool.9 mph89%29.80 "HgN/A
7:00 AM47 °FCool.12 mph86%29.78 "HgN/A
6:00 AM48 °FCool.7 mph94%29.79 "HgN/A
5:00 AM47 °FCool.7 mph94%29.79 "HgN/A
4:00 AM48 °FCool.9 mph94%29.79 "HgN/A
3:00 AM47 °FCool.9 mph95%29.80 "HgN/A
2:00 AM47 °FCool.6 mph94%29.82 "HgN/A
1:00 AM46 °FCool.6 mph96%29.84 "HgN/A
12:00 AM46 °FCool.6 mph95%29.85 "HgN/A
11:00 PM
Sun, Mar 1
46 °FCool.5 mph95%29.87 "HgN/A
10:00 PM46 °FCool.8 mph93%29.89 "HgN/A
9:00 PM45 °FCool.5 mph97%29.88 "HgN/A
8:00 PM45 °FCool.3 mph96%29.90 "HgN/A
7:00 PM45 °FCool.5 mph95%29.91 "HgN/A
6:00 PM45 °FCool.9 mph96%29.90 "HgN/A
5:00 PM44 °FQuite cool.7 mph96%29.91 "HgN/A
4:00 PM44 °FQuite cool.7 mph96%29.91 "HgN/A
Weather by CustomWeather, © 2015

See weather overviewHow to use our weather pages